Location: Unspecified
(0.0000°N, 0.0000°E)
Time: 09:17:20
(UTC+00:00)

GONETS M 13 (M23) - Pass Details

Date: 13 June 2023
Orbit: 1484 x 1504 km, 82.5° (Epoch: 28 September)

Event Time Altitude Azimuth Distance (km) Brightness Sun altitude
Rises 19:07:34 0° 334° (NNW) 4,605 ? -15.5°
Reaches altitude 10° 19:10:54 10° 324° (NW) 3,624 ? -16.2°
Maximum altitude 19:18:07 30° 267° (W) 2,424 ? -17.9°
Drops below altitude 10° 19:25:23 10° 210° (SSW) 3,626 ? -19.5°
Sets 19:28:46 0° 199° (SSW) 4,608 ? -20.3°
